Terminal Aerodrome Forecast
Issued by NWS

Home | Current Version | Previous Version | Text Only | Print | Product List | Glossary On
Versions: 1 2 3 4 5 6 7 8 9 10 11 12 13 14 15 16 17 18
000
FTUS45 KABQ 031100
TAFROW
TAF
KROW 031140Z 0312/0412 17009KT 3/4SM BR OVC003
      TEMPO 0313/0316 4SM BR SCT007 BKN025
     FM031600 07009KT P6SM BKN050
     FM031800 36008KT P6SM BKN060
     FM032300 20007KT P6SM FEW060 FEW120=

USA.gov is the U.S. government's official web portal to all federal, state and local government web resources and services.